TimePST,TemperatureF,Dew PointF,Humidity,Sea Level PressureIn,VisibilityMPH,Wind Direction,Wind SpeedMPH,Gust SpeedMPH,PrecipitationIn,Events,Conditions,WindDirDegrees,DateUTC
12:53 AM,37.9,35.1,89,30.28,8.0,Calm,Calm,-,N/A,,Scattered Clouds,0,2013-01-01 08:53:00
1:53 AM,36.0,33.1,89,30.27,8.0,SE,3.5,-,N/A,,Clear,140,2013-01-01 09:53:00
2:53 AM,35.1,32.0,89,30.25,6.0,Calm,Calm,-,N/A,,Partly Cloudy,0,2013-01-01 10:53:00
3:45 AM,32.0,30.2,93,30.23,2.0,Calm,Calm,-,N/A,,Clear,0,2013-01-01 11:45:00
3:53 AM,30.9,30.0,96,30.24,1.0,Calm,Calm,-,N/A,,Clear,0,2013-01-01 11:53:00
4:00 AM,30.2,28.4,93,30.23,0.5,Calm,Calm,-,N/A,Fog,Light Freezing Fog,0,2013-01-01 12:00:00
4:07 AM,30.2,26.6,86,30.23,0.2,Calm,Calm,-,N/A,Fog,Light Freezing Fog,0,2013-01-01 12:07:00
4:27 AM,33.8,32.0,93,30.24,1.0,Calm,Calm,-,N/A,,Clear,0,2013-01-01 12:27:00
4:39 AM,33.8,30.2,87,30.24,2.0,Calm,Calm,-,N/A,,Clear,0,2013-01-01 12:39:00
4:48 AM,33.8,30.2,87,30.24,3.0,Calm,Calm,-,N/A,,Clear,0,2013-01-01 12:48:00
4:53 AM,30.9,30.0,96,30.25,3.0,Calm,Calm,-,N/A,,Clear,0,2013-01-01 12:53:00
5:18 AM,32.0,32.0,100,30.24,1.8,Calm,Calm,-,N/A,,Clear,0,2013-01-01 13:18:00
5:27 AM,30.2,28.4,93,30.24,0.5,Calm,Calm,-,N/A,Fog,Light Freezing Fog,0,2013-01-01 13:27:00
5:38 AM,30.2,28.4,93,30.24,2.0,Calm,Calm,-,N/A,,Partly Cloudy,0,2013-01-01 13:38:00
5:53 AM,30.0,28.9,96,30.25,2.5,NE,3.5,-,N/A,,Mostly Cloudy,50,2013-01-01 13:53:00
6:09 AM,33.8,30.2,87,30.25,3.0,NE,4.6,-,N/A,,Mostly Cloudy,40,2013-01-01 14:09:00
6:23 AM,33.8,32.0,93,30.25,2.5,ENE,4.6,-,N/A,,Scattered Clouds,70,2013-01-01 14:23:00
6:53 AM,33.1,30.9,92,30.27,2.5,ENE,4.6,-,N/A,,Partly Cloudy,70,2013-01-01 14:53:00
7:31 AM,33.8,32.0,93,30.26,1.5,ENE,3.5,-,N/A,,Clear,60,2013-01-01 15:31:00
7:51 AM,35.6,33.8,93,30.27,2.0,Calm,Calm,-,N/A,,Clear,0,2013-01-01 15:51:00
7:53 AM,36.0,34.0,93,30.28,2.5,Calm,Calm,-,N/A,,Clear,0,2013-01-01 15:53:00
8:33 AM,37.4,35.6,93,30.27,3.0,NW,3.5,-,N/A,,Clear,310,2013-01-01 16:33:00
8:53 AM,39.9,37.0,89,30.29,4.0,Calm,Calm,-,N/A,,Partly Cloudy,0,2013-01-01 16:53:00
9:53 AM,44.1,37.0,76,30.30,6.0,Calm,Calm,-,N/A,,Haze,0,2013-01-01 17:53:00
10:53 AM,45.0,37.0,74,30.29,8.0,Calm,Calm,-,N/A,,Clear,0,2013-01-01 18:53:00
11:53 AM,48.9,37.0,64,30.25,8.0,WNW,4.6,-,N/A,,Clear,300,2013-01-01 19:53:00
12:53 PM,52.0,37.0,57,30.22,10.0,NW,5.8,-,N/A,,Clear,310,2013-01-01 20:53:00
1:53 PM,53.1,37.0,55,30.22,10.0,North,4.6,-,N/A,,Clear,360,2013-01-01 21:53:00
2:53 PM,53.1,35.1,50,30.20,10.0,WNW,5.8,-,N/A,,Clear,300,2013-01-01 22:53:00
3:53 PM,53.1,35.1,50,30.21,10.0,NW,5.8,-,N/A,,Clear,320,2013-01-01 23:53:00
4:53 PM,48.9,37.0,64,30.22,10.0,NW,9.2,-,N/A,,Clear,310,2013-01-02 00:53:00
5:53 PM,45.0,37.0,74,30.24,10.0,NW,9.2,-,N/A,,Clear,320,2013-01-02 01:53:00
6:53 PM,43.0,36.0,76,30.25,9.0,NW,6.9,-,N/A,,Clear,310,2013-01-02 02:53:00
7:53 PM,43.0,36.0,76,30.26,9.0,WNW,6.9,-,N/A,,Clear,300,2013-01-02 03:53:00
8:53 PM,42.1,36.0,79,30.27,7.0,WNW,6.9,-,N/A,,Clear,300,2013-01-02 04:53:00
9:53 PM,39.0,35.1,86,30.29,6.0,NW,3.5,-,N/A,,Clear,310,2013-01-02 05:53:00
10:53 PM,37.9,34.0,86,30.29,5.0,NNW,3.5,-,N/A,,Clear,340,2013-01-02 06:53:00
11:53 PM,35.1,32.0,89,30.28,4.0,Calm,Calm,-,N/A,,Clear,0,2013-01-02 07:53:00